TimeMDT,TemperatureF,Dew PointF,Humidity,Sea Level PressureIn,VisibilityMPH,Wind Direction,Wind SpeedMPH,Gust SpeedMPH,PrecipitationIn,Events,Conditions,WindDirDegrees,DateUTC
12:15 AM,21.2,19.4,93,30.09,10.0,Calm,Calm,-,N/A,,Clear,0,2013-03-27 06:15:00
12:35 AM,21.2,19.4,93,30.09,10.0,WNW,5.8,-,N/A,,Clear,300,2013-03-27 06:35:00
12:55 AM,19.4,17.6,93,30.09,10.0,WNW,4.6,-,N/A,,Clear,300,2013-03-27 06:55:00
1:15 AM,19.4,17.6,93,30.09,10.0,WNW,4.6,-,N/A,,Clear,300,2013-03-27 07:15:00
1:35 AM,19.4,17.6,93,30.09,10.0,WNW,4.6,-,N/A,,Clear,300,2013-03-27 07:35:00
1:55 AM,19.4,17.6,93,30.09,10.0,Calm,Calm,-,N/A,,Clear,0,2013-03-27 07:55:00
2:15 AM,19.4,15.8,86,30.09,10.0,Calm,Calm,-,N/A,,Clear,0,2013-03-27 08:15:00
2:35 AM,17.6,15.8,93,30.08,10.0,Calm,Calm,-,N/A,,Clear,0,2013-03-27 08:35:00
2:55 AM,17.6,15.8,93,30.08,10.0,Calm,Calm,-,N/A,,Clear,0,2013-03-27 08:55:00
3:15 AM,17.6,14.0,86,30.08,10.0,Calm,Calm,-,N/A,,Clear,0,2013-03-27 09:15:00
3:35 AM,17.6,14.0,86,30.08,10.0,Calm,Calm,-,N/A,,Clear,0,2013-03-27 09:35:00
3:55 AM,17.6,15.8,93,30.08,10.0,WNW,4.6,-,N/A,,Clear,300,2013-03-27 09:55:00
4:15 AM,15.8,14.0,93,30.08,10.0,WNW,4.6,-,N/A,,Clear,300,2013-03-27 10:15:00
4:35 AM,17.6,14.0,86,30.08,10.0,Calm,Calm,-,N/A,,Clear,0,2013-03-27 10:35:00
4:55 AM,15.8,12.2,86,30.09,10.0,NW,6.9,-,N/A,,Clear,310,2013-03-27 10:55:00
5:15 AM,15.8,12.2,86,30.09,9.0,NW,6.9,-,N/A,,Clear,310,2013-03-27 11:15:00
5:35 AM,15.8,12.2,86,30.09,9.0,NW,6.9,-,N/A,,Clear,310,2013-03-27 11:35:00
5:55 AM,14.0,10.4,86,30.10,9.0,NW,6.9,-,N/A,,Clear,320,2013-03-27 11:55:00
6:15 AM,12.2,10.4,92,30.11,9.0,NNW,3.5,-,N/A,,Partly Cloudy,340,2013-03-27 12:15:00
6:35 AM,12.2,10.4,92,30.12,10.0,NW,3.5,-,N/A,,Scattered Clouds,320,2013-03-27 12:35:00
6:55 AM,12.2,10.4,92,30.12,10.0,NNW,5.8,-,N/A,,Clear,330,2013-03-27 12:55:00
7:15 AM,12.2,8.6,85,30.11,8.0,NNW,5.8,-,N/A,,Clear,330,2013-03-27 13:15:00
7:35 AM,12.2,10.4,92,30.12,8.0,NW,5.8,-,N/A,,Partly Cloudy,310,2013-03-27 13:35:00
7:55 AM,12.2,10.4,92,30.12,8.0,NNW,4.6,-,N/A,,Overcast,330,2013-03-27 13:55:00
8:15 AM,12.2,10.4,92,30.12,8.0,Calm,Calm,-,N/A,,Overcast,0,2013-03-27 14:15:00
8:35 AM,15.8,12.2,86,30.13,5.0,Calm,Calm,-,N/A,,Overcast,0,2013-03-27 14:35:00
9:15 AM,17.6,12.2,79,30.13,4.0,Calm,Calm,-,N/A,,Overcast,0,2013-03-27 15:15:00
9:35 AM,19.4,15.8,86,30.14,4.0,Calm,Calm,-,N/A,,Overcast,0,2013-03-27 15:35:00
9:55 AM,21.2,17.6,86,30.14,5.0,NE,3.5,-,N/A,,Mostly Cloudy,50,2013-03-27 15:55:00
10:15 AM,21.2,17.6,86,30.14,5.0,ENE,4.6,-,N/A,,Scattered Clouds,70,2013-03-27 16:15:00
10:35 AM,21.2,17.6,86,30.14,5.0,NNE,5.8,-,N/A,,Mostly Cloudy,30,2013-03-27 16:35:00
10:55 AM,21.2,17.6,86,30.15,1.2,NNE,5.8,-,N/A,,Overcast,30,2013-03-27 16:55:00
11:15 AM,21.2,19.4,93,30.14,2.0,NNE,4.6,-,N/A,,Overcast,20,2013-03-27 17:15:00
11:35 AM,24.8,21.2,86,30.14,3.0,Calm,Calm,-,N/A,,Overcast,0,2013-03-27 17:35:00
11:55 AM,24.8,21.2,86,30.14,3.0,North,3.5,-,N/A,,Mostly Cloudy,10,2013-03-27 17:55:00
12:15 PM,26.6,23.0,86,30.14,3.0,NNE,4.6,-,0.01,,Partly Cloudy,30,2013-03-27 18:15:00
12:35 PM,26.6,23.0,86,30.14,4.0,North,4.6,-,0.01,,Clear,10,2013-03-27 18:35:00
1:15 PM,28.4,24.8,86,30.14,4.0,North,3.5,-,N/A,,Clear,360,2013-03-27 19:15:00
1:35 PM,30.2,26.6,86,30.13,6.0,NNE,5.8,-,N/A,,Clear,30,2013-03-27 19:35:00
1:55 PM,33.8,28.4,81,30.13,8.0,NE,5.8,-,N/A,,Clear,40,2013-03-27 19:55:00
2:15 PM,33.8,28.4,81,30.13,9.0,NE,5.8,-,N/A,,Clear,40,2013-03-27 20:15:00
2:35 PM,35.6,28.4,75,30.13,10.0,NNE,6.9,-,N/A,,Clear,30,2013-03-27 20:35:00
2:55 PM,35.6,28.4,75,30.12,10.0,NNE,8.1,-,0.01,,Clear,30,2013-03-27 20:55:00
3:15 PM,35.6,26.6,70,30.12,10.0,NNE,8.1,-,N/A,,Clear,30,2013-03-27 21:15:00
3:36 PM,35.6,28.4,75,30.12,10.0,NNE,8.1,-,0.01,,Clear,20,2013-03-27 21:36:00
3:55 PM,35.6,28.4,75,30.12,10.0,NNE,6.9,-,0.01,,Clear,20,2013-03-27 21:55:00
4:16 PM,35.6,28.4,75,30.12,10.0,NNE,8.1,-,N/A,,Clear,20,2013-03-27 22:16:00
4:35 PM,37.4,28.4,70,30.12,10.0,NNE,8.1,-,N/A,,Clear,30,2013-03-27 22:35:00
5:15 PM,35.6,28.4,75,30.12,10.0,NNE,9.2,-,N/A,,Clear,20,2013-03-27 23:15:00
5:35 PM,35.6,28.4,75,30.12,10.0,NNE,8.1,-,N/A,,Clear,30,2013-03-27 23:35:00
5:55 PM,35.6,28.4,75,30.12,10.0,NNE,9.2,-,N/A,,Clear,20,2013-03-27 23:55:00
6:15 PM,35.6,28.4,75,30.12,10.0,NNE,6.9,-,N/A,,Clear,20,2013-03-28 00:15:00
6:35 PM,35.6,28.4,75,30.12,10.0,NNE,5.8,-,N/A,,Clear,20,2013-03-28 00:35:00
6:55 PM,35.6,28.4,75,30.13,10.0,North,5.8,-,0.01,,Clear,10,2013-03-28 00:55:00
7:15 PM,33.8,26.6,75,30.13,10.0,North,5.8,-,N/A,,Clear,350,2013-03-28 01:15:00
7:35 PM,32.0,26.6,80,30.13,10.0,NNW,5.8,-,N/A,,Clear,340,2013-03-28 01:35:00
7:55 PM,30.2,26.6,86,30.13,10.0,NNW,6.9,-,N/A,,Clear,340,2013-03-28 01:55:00
8:15 PM,30.2,26.6,86,30.13,10.0,NNW,5.8,-,N/A,,Clear,340,2013-03-28 02:15:00
8:35 PM,30.2,24.8,80,30.13,10.0,North,5.8,-,N/A,,Clear,350,2013-03-28 02:35:00
8:55 PM,28.4,24.8,86,30.13,10.0,NNW,5.8,-,N/A,,Clear,340,2013-03-28 02:55:00
9:15 PM,28.4,24.8,86,30.14,9.0,NNW,6.9,-,N/A,,Clear,340,2013-03-28 03:15:00
9:35 PM,28.4,24.8,86,30.14,7.0,North,6.9,-,N/A,,Clear,350,2013-03-28 03:35:00
9:55 PM,28.4,24.8,86,30.14,6.0,North,5.8,-,N/A,,Clear,350,2013-03-28 03:55:00
10:15 PM,26.6,24.8,93,30.14,5.0,North,6.9,-,N/A,,Clear,360,2013-03-28 04:15:00
10:35 PM,26.6,24.8,93,30.14,5.0,North,5.8,-,N/A,,Clear,350,2013-03-28 04:35:00
10:55 PM,26.6,23.0,86,30.13,5.0,North,5.8,-,N/A,,Clear,350,2013-03-28 04:55:00
11:15 PM,26.6,23.0,86,30.13,5.0,North,6.9,-,N/A,,Clear,350,2013-03-28 05:15:00
11:55 PM,26.6,23.0,86,30.13,4.0,NNW,6.9,-,N/A,,Clear,340,2013-03-28 05:55:00